{"data":{"norad_id":41944,"epoch":"2026-05-25T00:52:58.561824Z","epoch_age_seconds":82060,"freshness":"FRESH","line1":"1 41944U 17007A   26145.03678891 -.00000365  00000+0  00000+0 0  9990","line2":"2 41944   0.0182 283.3715 0002330 141.3852 309.1241  1.00271715 33905","mean_motion":1.00271715,"eccentricity":0.000233,"inclination_deg":0.0182,"raan_deg":283.3715,"arg_perigee_deg":141.3852,"mean_anomaly_deg":309.1241,"bstar":0,"rev_number":3390,"period_min":1436.0979065732,"perigee_km":35776.790197624,"apogee_km":35796.438971862,"semimajor_km":42164.751584743,"source":"CELESTRAK","updated_at":"2026-05-25T13:38:14.013023Z"}}